Regional Weather Roundup
Issued by NWS Mt. Holly, NJ

Home | Current Version | Previous Version | Text Only | Print | Product List | Glossary On
Versions: 1 2 3 4 5 6 7 8 9 10 11 12 13 14 15 16 17 18 19 20 21 22 23 24 25 26 27 28 29 30 31 32 33 34 35 36 37 38 39 40 41 42 43 44 45 46 47 48 49 50
000
ASUS41 KPHI 291212
RWRPHI

REGIONAL WEATHER ROUNDUP
NATIONAL WEATHER SERVICE MOUNT HOLLY NJ
800 AM EDT FRI APR 29 2016

NOTE:  "FAIR" INDICATES FEW OR NO CLOUDS BELOW 12,000 FEET WITH NO
SIGNIFICANT WEATHER AND/OR OBSTRUCTIONS TO VISIBILITY.

 * = STATION DOES NOT REPORT PRECIPITATION (E.G. RAIN, SNOW, ETC.)
        OR FOG.

NJZ015>026-291300-
SOUTHERN NEW JERSEY

CITY           SKY/WX    TMP DP  RH WIND       PRES   REMARKS
POMONA         CLOUDY    48  45  89 NE10      30.06R
6HR MIN TEMP:  46; 6HR MAX TEMP:  48;

WILDWOOD*      CLOUDY   N/A N/A N/A NE12G17   30.04R
MILLVILLE      CLOUDY    47  44  90 NE9       30.05R
WRIGHTSTOWN    CLOUDY    47  43  88 NE9       30.05R
MOUNT HOLLY    CLOUDY    47  43  86 VRB6      30.08R
TRENTON        CLOUDY    47  42  83 NE5       30.08R
6HR MIN TEMP:  44; 6HR MAX TEMP:  47;


$$
NJZ001>014-291300-
NORTHERN NEW JERSEY

CITY           SKY/WX    TMP DP  RH WIND       PRES   REMARKS
SUSSEX         LGT RAIN  47  37  68 NE5       30.10R
ANDOVER*         N/A     47  36  65 CALM      30.09R
MORRISTOWN     CLOUDY    50  34  53 E6        30.11R
NEWARK         CLOUDY    52  29  41 NE7       30.10R
TETERBORO      CLOUDY    50  34  54 E7        30.10R
CALDWELL       CLOUDY    49  31  49 E7        30.11R
SOMERVILLE     CLOUDY    49  41  74 VRB3      30.08R
ALLAIRE*       CLOUDY    48  41  76 E10       30.09R
TOMS RIVER*    CLOUDY    48  41  76 NE10      30.08R

$$
PAZ043-044-047-054-055-060>062-066>071-291300-
EASTERN PENNSYLVANIA

CITY           SKY/WX    TMP DP  RH WIND       PRES   REMARKS
PHILADELPHIA   CLOUDY    48  41  76 NE7       30.07R
6HR MIN TEMP:  45; 6HR MAX TEMP:  48; 6HR PCP: TRACE;

NORTH PHILA    CLOUDY    48  43  82 NE6       30.09S
BLUE BELL*     CLOUDY    45  43  93 CALM      30.07R
DOYLESTOWN     CLOUDY    43  42  97 CALM      30.07S
QUAKERTOWN*    CLOUDY    45  41  87 CALM      30.08S
PERKASIE*      CLOUDY    45  43  93 NE5       30.08S
POTTSTOWN      CLOUDY    45  42  89 E5        30.08S FOG
LANCASTER      CLOUDY    43  41  93 E7        30.07R
COATESVILLE    CLOUDY    43  43 100 E6G14     30.07S FOG
READING        CLOUDY    46  39  76 E3        30.07R
6HR MIN TEMP:  44; 6HR MAX TEMP:  46; 6HR PCP: TRACE;

ALLENTOWN      CLOUDY    48  40  73 E5        30.08S
6HR MIN TEMP:  46; 6HR MAX TEMP:  48; 6HR PCP: TRACE;

MOUNT POCONO   CLOUDY    42  37  82 E6        30.05R
6HR MIN TEMP:  41; 6HR MAX TEMP:  43; 6HR PCP: TRACE;

HAZLETON       CLOUDY    45  36  70 SE3       30.07R
LEHIGHTON      CLOUDY    46  43  87 CALM      30.08S FOG
WILKES BARRE   CLOUDY    48  39  71 VRB3      30.06R

$$
DEZALL-MDZ008-012-015-019-020-291300-
DELAWARE AND EASTERN MARYLAND

CITY           SKY/WX    TMP DP  RH WIND       PRES   REMARKS
WILMINGTON     CLOUDY    47  43  86 NE10      30.07S
6HR MIN TEMP:  45; 6HR MAX TEMP:  47; 6HR PCP:  0.01;

DOVER          CLOUDY    47  47 100 NE7       30.04S
GEORGETOWN     CLOUDY    50  49  96 NE9       30.05R FOG
6HR MIN TEMP:  49; 6HR MAX TEMP:  50;

EASTON         CLOUDY   N/A N/A N/A NE8       30.08R HAZE
ABERDEEN       DRZL/FOG  46  45  93 NE7       30.07R VSB 1
PATUXENT       CLOUDY    51  47  86 NE10      30.03R
OCEAN CITY     CLOUDY    50  49  96 NE9       30.03R FOG
WALLOPS ISLAND CLOUDY    51  50  96 NE12      30.02R FOG
CAMBRIDGE      CLOUDY    48  46  93 NE5       30.03R
SALISBURY      CLOUDY    50  49  96 NE13      30.02R FOG

$$
PAZ001-021-NYZ056-072-MDZ011-DCZ001-291300-
OTHER NEARBY LOCATIONS

CITY           SKY/WX    TMP DP  RH WIND       PRES   REMARKS
HARRISBURG     DRIZZLE   45  42  89 E7        30.07R FOG
WILLIAMSPORT   CLOUDY    47  38  71 SE12      30.05S
BINGHAMTON     CLOUDY    42  36  79 E5        30.04R
NEW YORK CITY  CLOUDY    49  31  49 NE9       30.13R
BALTIMORE      DRIZZLE   47  45  93 N6        30.05R FOG
WASHINGTON DC  CLOUDY    48  46  93 NE8       30.05R FOG

$$



USA.gov is the U.S. government's official web portal to all federal, state and local government web resources and services.